BAW16PA TAPA-TKPK

Flight info

Callsign BAW16PA
Flight time N/A
Altitude 10000
Route ANU G633 SKB
Aircraft B772/H-SDE2E3FGHIJ5LORVWXY/LB1D1

Departure

Time 2026-04-20 17:39
Airport V. C. Bird International Airport (TAPA)

Arrival

Time N/A
Airport Robert L. Bradshaw International Airport (TKPK)
Time Latitude Longitude Altitude Speed Heading
2026-04-20 17:20 17.14057 -61.79091 63 ft 0 kts 328°
2026-04-20 17:33 17.14042 -61.79081 62 ft 2 kts 328°
2026-04-20 17:33 17.14033 -61.79075 62 ft 1 kts 328°
2026-04-20 17:33 17.14021 -61.79066 61 ft 2 kts 309°
2026-04-20 17:33 17.14013 -61.79053 60 ft 2 kts 288°
2026-04-20 17:34 17.14010 -61.79038 60 ft 2 kts 270°
2026-04-20 17:34 17.14012 -61.79022 59 ft 2 kts 250°
2026-04-20 17:34 17.14016 -61.79013 59 ft 0 kts 238°
2026-04-20 17:34 17.14018 -61.79009 59 ft 0 kts 237°
2026-04-20 17:35 17.14018 -61.79010 59 ft 0 kts 237°
2026-04-20 17:36 17.14006 -61.79029 59 ft 8 kts 238°
2026-04-20 17:36 17.13965 -61.79089 62 ft 11 kts 224°
2026-04-20 17:36 17.13891 -61.79136 63 ft 13 kts 219°
2026-04-20 17:36 17.13832 -61.79216 66 ft 14 kts 236°
2026-04-20 17:37 17.13772 -61.79311 68 ft 17 kts 238°
2026-04-20 17:37 17.13705 -61.79424 71 ft 19 kts 238°
2026-04-20 17:37 17.13634 -61.79545 74 ft 20 kts 239°
2026-04-20 17:37 17.13554 -61.79680 74 ft 23 kts 238°
2026-04-20 17:38 17.13494 -61.79776 75 ft 11 kts 230°
2026-04-20 17:38 17.13413 -61.79830 74 ft 16 kts 197°
2026-04-20 17:38 17.13341 -61.79836 71 ft 1 kts 147°
2026-04-20 17:38 17.13341 -61.79820 71 ft 3 kts 58°
2026-04-20 17:39 17.13346 -61.79813 70 ft 1 kts 54°
2026-04-20 17:39 17.13483 -61.79586 67 ft 84 kts 58°
2026-04-20 17:39 17.13940 -61.78820 103 ft 156 kts 60°
2026-04-20 17:39 17.14577 -61.77803 749 ft 177 kts 60°
2026-04-20 17:40 17.15358 -61.76829 1741 ft 180 kts 30°
2026-04-20 17:40 17.16612 -61.76660 2308 ft 202 kts 353°
2026-04-20 17:40 17.17828 -61.77426 3075 ft 215 kts 314°
2026-04-20 17:40 17.18523 -61.78902 3628 ft 237 kts 285°
2026-04-20 17:41 17.18770 -61.80607 4314 ft 247 kts 278°
2026-04-20 17:41 17.18954 -61.82424 5056 ft 254 kts 276°
2026-04-20 17:41 17.19146 -61.84287 5632 ft 268 kts 277°
2026-04-20 17:41 17.19389 -61.86261 6121 ft 286 kts 277°
2026-04-20 17:42 17.19611 -61.88353 6758 ft 297 kts 277°
2026-04-20 17:42 17.19853 -61.90609 6988 ft 327 kts 277°
2026-04-20 17:42 17.20109 -61.93071 7088 ft 358 kts 277°
2026-04-20 17:42 17.20411 -61.95713 7005 ft 366 kts 278°
2026-04-20 17:43 17.20719 -61.98338 7015 ft 368 kts 277°
2026-04-20 17:43 17.21033 -62.01010 7009 ft 368 kts 277°
2026-04-20 17:43 17.21342 -62.03649 6997 ft 368 kts 277°
2026-04-20 17:43 17.21541 -62.06317 7015 ft 368 kts 271°
2026-04-20 17:44 17.21494 -62.09021 7005 ft 369 kts 269°
2026-04-20 17:44 17.21426 -62.11670 6998 ft 369 kts 269°
2026-04-20 17:44 17.21357 -62.14351 6999 ft 369 kts 269°
2026-04-20 17:44 17.21287 -62.17023 6999 ft 369 kts 269°
2026-04-20 17:45 17.21217 -62.19714 6998 ft 369 kts 269°
2026-04-20 17:45 17.21146 -62.22414 6998 ft 370 kts 269°
2026-04-20 17:45 17.21075 -62.25097 7000 ft 369 kts 269°
2026-04-20 17:45 17.21005 -62.27756 6998 ft 370 kts 269°
2026-04-20 17:46 17.20933 -62.30448 7001 ft 370 kts 269°
2026-04-20 17:46 17.20861 -62.33140 6995 ft 369 kts 269°
2026-04-20 17:46 17.20788 -62.35827 7016 ft 369 kts 269°
2026-04-20 17:46 17.20717 -62.38478 6995 ft 369 kts 269°
2026-04-20 17:47 17.20643 -62.41193 6968 ft 369 kts 269°
2026-04-20 17:47 17.20570 -62.43860 7011 ft 370 kts 269°
2026-04-20 17:47 17.20498 -62.46526 7021 ft 369 kts 269°
2026-04-20 17:47 17.20423 -62.49230 7023 ft 370 kts 269°
2026-04-20 17:48 17.20349 -62.51912 7023 ft 370 kts 269°
2026-04-20 17:48 17.20275 -62.54594 7022 ft 369 kts 269°
2026-04-20 17:48 17.20200 -62.57270 7024 ft 370 kts 269°
2026-04-20 17:48 17.20125 -62.59984 7025 ft 370 kts 269°
2026-04-20 17:49 17.20050 -62.62646 7023 ft 369 kts 269°
2026-04-20 17:49 17.19975 -62.65333 7022 ft 369 kts 269°
2026-04-20 17:49 17.19900 -62.67981 7005 ft 358 kts 269°
2026-04-20 17:49 17.19827 -62.70521 6862 ft 341 kts 269°
2026-04-20 17:50 17.19657 -62.72919 6761 ft 325 kts 258°
2026-04-20 17:50 17.18800 -62.75044 6693 ft 309 kts 239°
2026-04-20 17:50 17.17690 -62.76910 6689 ft 294 kts 237°
2026-04-20 17:50 17.16623 -62.78667 6618 ft 283 kts 237°
2026-04-20 17:51 17.15568 -62.80402 6225 ft 286 kts 237°
2026-04-20 17:51 17.14493 -62.82177 5888 ft 286 kts 237°
2026-04-20 17:51 17.13435 -62.83927 5625 ft 284 kts 237°
2026-04-20 17:51 17.12383 -62.85677 5252 ft 284 kts 237°
2026-04-20 17:52 17.11340 -62.87428 4864 ft 283 kts 237°
2026-04-20 17:52 17.10314 -62.89161 4425 ft 284 kts 237°
2026-04-20 17:52 17.09289 -62.90899 3952 ft 279 kts 237°
2026-04-20 17:52 17.08307 -62.92642 3599 ft 280 kts 245°
2026-04-20 17:53 17.07914 -62.94616 3242 ft 280 kts 273°
2026-04-20 17:53 17.08414 -62.96546 2924 ft 275 kts 303°
2026-04-20 17:53 17.09661 -62.97964 2898 ft 254 kts 330°
2026-04-20 17:53 17.11214 -62.98643 2880 ft 235 kts 354°
2026-04-20 17:54 17.12792 -62.98642 2868 ft 217 kts 16°
2026-04-20 17:54 17.14142 -62.98097 2849 ft 201 kts 35°
2026-04-20 17:54 17.15163 -62.97185 2836 ft 188 kts 53°
2026-04-20 17:54 17.15883 -62.96090 2825 ft 177 kts 59°
2026-04-20 17:55 17.16534 -62.95033 2823 ft 171 kts 59°
2026-04-20 17:55 17.17228 -62.93904 2862 ft 194 kts 59°
2026-04-20 17:55 17.18004 -62.92641 2951 ft 215 kts 59°
2026-04-20 17:55 17.18821 -62.91314 3023 ft 221 kts 59°
2026-04-20 17:56 17.19663 -62.89936 3063 ft 230 kts 59°
2026-04-20 17:56 17.20562 -62.88528 3039 ft 230 kts 58°
2026-04-20 17:56 17.21433 -62.87166 2879 ft 221 kts 58°
2026-04-20 17:56 17.22253 -62.85876 2874 ft 203 kts 58°
2026-04-20 17:57 17.23029 -62.84689 2726 ft 195 kts 56°
2026-04-20 17:57 17.23766 -62.83584 2697 ft 177 kts 58°
2026-04-20 17:57 17.24447 -62.82499 2507 ft 179 kts 58°
2026-04-20 17:57 17.25143 -62.81411 2359 ft 178 kts 58°
2026-04-20 17:58 17.25819 -62.80384 2164 ft 164 kts 58°
2026-04-20 17:58 17.26410 -62.79432 1964 ft 149 kts 60°
2026-04-20 17:58 17.26962 -62.78542 1730 ft 142 kts 61°
2026-04-20 17:58 17.27475 -62.77719 1551 ft 125 kts 63°
2026-04-20 17:59 17.27927 -62.76979 1332 ft 121 kts 64°
2026-04-20 17:59 17.28370 -62.76227 1158 ft 122 kts 62°
2026-04-20 17:59 17.28844 -62.75482 963 ft 124 kts 60°
2026-04-20 17:59 17.29325 -62.74726 759 ft 125 kts 61°
2026-04-20 18:00 17.29799 -62.73966 554 ft 124 kts 61°
2026-04-20 18:00 17.30272 -62.73217 345 ft 124 kts 61°
2026-04-20 18:00 17.30743 -62.72471 180 ft 114 kts 61°